Regional Weather Roundup
Issued by NWS

Home | Current Version | Previous Version | Graphics & Text | Print | Product List | Glossary On
Versions: 1 2 3 4 5 6 7 8 9 10 11 12 13 14 15 16 17 18 19 20 21 22 23 24 25 26 27 28 29 30 31 32 33 34 35 36 37 38 39 40 41 42 43 44 45 46 47 48 49 50
000
ASUS43 KMKX 240711
RWRWI

WISCONSIN REGIONAL WEATHER ROUNDUP
NATIONAL WEATHER SERVICE MILWAUKEE/SULLIVAN WI
200 AM CDT THU APR 24 2014

NOTE: "FAIR" INDICATES FEW OR NO CLOUDS BELOW 12,000 FEET WITH NO
SIGNIFICANT WEATHER AND/OR OBSTRUCTIONS TO VISIBILITY.

WIZ001-002-006>008-014>016-023>028-240800-
NORTHWEST WISCONSIN

CITY           SKY/WX    TMP DP  RH WIND       PRES   REMARKS
SUPERIOR ARPT  DRIZZLE   34  33  98 NE5       30.03F WCI  30
ASHLAND        LGT RAIN  39  37  92 CALM      30.05F
HAYWARD        LGT RAIN  37  34  89 VRB3      30.02S
SIREN          DRIZZLE   39  38  94 E7        29.97F WCI  34
RICE LAKE      LGT RAIN  39  37  93 E14G20    30.00F WCI  31
LADYSMITH      DRIZZLE   38  37  94 E6        30.05R WCI  34
EAU CLAIRE     CLOUDY    41  39  93 E14       29.99S
MENOMONIE      CLOUDY    42  39  90 E12       29.98S
NEW RICHMOND   CLOUDY    42  38  88 SE13G20   29.92F
OSCEOLA        CLOUDY    42  40  93 SE15      29.95F
$$

WIZ003>005-009-010-017-018-240800-
NORTH CENTRAL WISCONSIN

CITY           SKY/WX    TMP DP  RH WIND       PRES   REMARKS
WOODRUFF       LGT RAIN  37  31  77 S10       30.07R WCI  30
RHINELANDER    LGT SNOW  33  29  85 S8        30.09R FOG     WCI  26
EAGLE RIVER    CLOUDY    39  12  32 S5        30.06S
LAND O LAKES   CLOUDY    40  11  30 S6        30.07R
PHILLIPS       LGT RAIN  34  33  95 E6        30.05S WCI  29
TOMAHAWK       LGT RAIN  34  31  91 SE5       30.08R WCI  30
MEDFORD        DRIZZLE   37  32  81 E8        30.04R WCI  31
MERRILL        LGT RAIN  34  30  85 E6        30.08S WCI  29
$$

WIZ029-030-035-036-043>047-240800-
CENTRAL WISCONSIN

CITY           SKY/WX    TMP DP  RH WIND       PRES   REMARKS
WAUSAU         LGT RAIN  40  15  36 SE6       30.07R
MOSINEE        CLOUDY    39   9  28 SE6       30.08S WCI  35
MARSHFIELD     LGT RAIN  37  30  75 SE12      30.05F WCI  29
STEVENS POINT  CLOUDY    39  14  35 SE6       30.09R WCI  35
WAUPACA        CLOUDY    43  12  28 CALM      30.10R
WAUTOMA        CLOUDY    39  23  53 SE3       30.11R
WISC RAPIDS    LGT RAIN  36  31  82 E8        30.09S WCI  30
CAMP DOUGLAS   LGT RAIN  38  38 100 SE12      30.06F WCI  30
$$

WIZ011>013-019>022-031-037>040-048>050-240800-
NORTHEAST WISCONSIN

CITY           SKY/WX    TMP DP  RH WIND       PRES   REMARKS
ANTIGO         CLOUDY    37  22  54 S8        30.09S WCI  30
STURGEON BAY   CLOUDY    39  18  41 E7        30.11S WCI  34
GREEN BAY      CLOUDY    41  21  44 E5        30.10S
MANITOWOC      CLOUDY    41  22  46 E5        30.11R
APPLETON       CLOUDY    41  16  36 SE7       30.09S
CLINTONVILLE   CLOUDY    41  18  38 CALM      30.10R
OSHKOSH        CLOUDY    40  20  44 CALM      30.10R
$$

WIZ032>034-041-042-053>061-240800-
SOUTHWEST WISCONSIN

CITY           SKY/WX    TMP DP  RH WIND       PRES   REMARKS
LA CROSSE      LGT RAIN  42  36  79 SE10G22   29.99F
SPARTA         RAIN      39  37  93 E8        30.04F WCI  34
VIROQUA        NOT AVBL
BOSCOBEL       LGT RAIN  43  34  70 E8        30.01F
PRAIRIE DU CHI RAIN      42  36  80 E9        29.98F
PLATTEVILLE    FAIR      41  34  77 E16       30.00S
$$

WIZ056-057-062-063-064-067-068-240800-
SOUTH CENTRAL WISCONSIN

CITY           SKY/WX    TMP DP  RH WIND       PRES   REMARKS
BARABOO/DELLS  LGT RAIN  37  33  86 SE6       30.07R WCI  32
LONE ROCK      CLOUDY    40  34  79 E17       30.03F WCI  31
WATERTOWN      LGT RAIN  36  28  74 E6        30.09R WCI  31
MADISON        LGT RAIN  38  29  70 SE14      30.10R WCI  30
MIDDLETON      CLOUDY    39  32  76 E8        30.08F WCI  33
MONROE         LGT RAIN  38  37  98 E10G20    30.04F WCI  31
JANESVILLE     LGT RAIN  37  32  81 E7        30.09R WCI  32
$$

WIZ051-052-058>065-066-070>072-240800-
SOUTHEAST WISCONSIN

CITY           SKY/WX    TMP DP  RH WIND       PRES   REMARKS
MILWAUKEE      LGT RAIN  38  26  62 E3        30.10R
WAUKESHA       LGT RAIN  34  27  75 CALM      30.11R
MILWAUKEE/TIMM CLOUDY    37  14  38 CALM      30.10R
RACINE         LGT RAIN  38  28  67 CALM      30.11R
BURLINGTON     MIX PCPN  34  29  82 NE3       30.09S
KENOSHA        LGT RAIN  36  30  79 CALM      30.09S
FOND DU LAC    CLOUDY    41  14  33 CALM      30.09R
SHEBOYGAN      CLOUDY    38  23  55 NE3       30.10R
WEST BEND      CLOUDY    37  14  38 CALM      30.10R
JUNEAU         LGT RAIN  37  22  55 E7        30.10R WCI  31
$$

LSZ147-162-240800-
LAKE SUPERIOR

STATION/POSITION TIME  TEMP    WIND        PRES    WAVE
                       AIR SEA DIR/SP/G            HT/PER
                 (UTC) (F)     (DEG/KT/KT) (MB)    (FT/S)
DEVILS ISLAND    0700   35     300/  5/  5 1018.7S
PORT WING        0600   33      50/  2/  3 1017.6F
SAXON HARBOR     0630          180/  1/ 10 1017.6R
$$

LMZ867-665-643>646-240800-
LAKE MICHIGAN

STATION/POSITION TIME  TEMP    WIND        PRES    WAVE
                       AIR SEA DIR/SP/G            HT/PER
                 (UTC) (F)     (DEG/KT/KT) (MB)    (FT/S)
NORTHPORT PIER   0600   35     320/  1/  3 1020.3R
SISTER BAY       0608   34        CALM       N/A
KEWAUNEE LAKESHO 0600   38      60/  5/  9 1019.9F
SHEBOYGAN LAKESH 0700   39      10/  7/  8 1020.1R
PORT WASHINGTON  0640   40     250/  3/ 18 1019.6R
MILWAUKEE LAKESH 0600   38      30/  7/  9   N/A
KENOSHA   LAKESH 0700   38      60/  4/  5   N/A
$$

TC  - TEMPERATURE IN CELSIUS
VSB - VISIBILITY IN STATUTE MILES
WCI - WIND CHILL INDEX
HX  - HEAT INDEX




USA.gov is the U.S. government's official web portal to all federal, state and local government web resources and services.